Regional Weather Roundup
Issued by NWS

Home | Current Version | Previous Version | Graphics & Text | Print | Product List | Glossary On
Versions: 1 2 3 4 5 6 7 8 9 10 11 12 13 14 15 16 17 18 19 20 21 22 23 24 25 26 27 28 29 30 31 32 33 34 35 36 37 38 39 40 41 42 43 44 45 46 47 48 49 50
492
ASUS45 KBOU 221007
RWRCO

WEATHER ROUNDUP FOR COLORADO
NATIONAL WEATHER SERVICE DENVER/BOULDER CO
300 AM MST SUN JAN 22 2017

NOTE: "FAIR" INDICATES FEW OR NO CLOUDS BELOW 12000 FEET WITH NO
SIGNIFICANT WEATHER AND/OR OBSTRUCTIONS TO VISIBILITY.

COZ001>005-013-030-031-221100-
...NORTHWEST COLORADO...

CITY           SKY/WX    TMP DP  RH WIND       PRES   REMARKS
CRAIG          CLOUDY    22  17  81 W5        29.95R WCI  16
HAYDEN         FAIR      25  18  74 W5        29.93R WCI  19
MEEKER         CLOUDY    22  20  92 W5        29.96R WCI  16
MOUNT WERNER   NOT AVBL
STEAMBOAT SPGS CLOUDY    23  20  87 W8        29.92R WCI  14
WALDEN           N/A     18  10  73 CALM      29.85R
$$

COZ006>008-011-221100-
...WEST CENTRAL VALLEYS...

CITY           SKY/WX    TMP DP  RH WIND       PRES   REMARKS
GRAND JUNCTION FAIR      27  24  89 CALM      30.00R
MONTROSE       CLOUDY    29  27  92 S7        30.02R WCI  22
EAGLE          CLOUDY    24  21  88 CALM      29.95
RIFLE          CLOUDY    32  27  81 W8        29.97R WCI  25
DELTA          FAIR      33  25  71 W9G23     29.99R WCI  26
NUCLA          FAIR      25  21  86 E9        30.04R WCI  15
$$

COZ017>023-064>068-221100-
...SOUTHWEST COLORADO...

CITY           SKY/WX    TMP DP  RH WIND       PRES   REMARKS
DURANGO        FAIR      12   9  87 VRB3      29.94R
CORTEZ         FAIR      15  13  91 NE5       30.01R WCI   8
PAGOSA SPRINGS MOCLDY    24  24  97 CALM      29.92R
TELLURIDE      CLOUDY    19  10  67 W10G16    29.97R WCI   8
WOLF CREEK PAS CLOUDY     9   9 100 SW8       29.89R WCI  -4
$$

COZ009-010-012-014-032>034-037-058>063-221100-
...CENTRAL COLORADO...

CITY           SKY/WX    TMP DP  RH WIND       PRES   REMARKS
ASPEN          FLURRIES  22  20  92 N6        29.90R WCI  14
BUENA VISTA    FAIR      19   8  63 N5        29.84R WCI  12
COPPER MTN     NOT AVBL
BERTHOUD PASS  NOT AVBL
COTTONWOOD PAS FAIR      23   5  46 W14G31    29.80R WCI  11
GUNNISON       FAIR      13  10  88 N6        29.92R WCI   4
KREMMLING      MOCLDY    19  16  86 CALM      29.91R
LEADVILLE      LGT SNOW  13   9  84 VRB6      29.82R FOG     WCI   4
MONARCH PASS   CLOUDY     9   5  85 NW7       29.90R WCI  -3
SALIDA         FAIR      25  15  65 NW9       29.91R WCI  16
SUNLIGHT       CLOUDY   N/A N/A N/A MISG      29.91R
WILKERSON PASS FAIR      12   3  67 NW12G21   29.77S WCI  -2
$$

COZ069>075-221100-
...SAN LUIS VALLEY/SANGRE DE CRISTO MOUNTAINS...

CITY           SKY/WX    TMP DP  RH WIND       PRES   REMARKS
ALAMOSA        FAIR       1  -2  87 SW7       29.86R WCI -12
LA VETA PASS   CLOUDY    18  14  86 NE23      29.78R WCI   0
SAGUACHE       FAIR      23  14  68 N13       29.86R WCI  11
$$

COZ035-036-038>040-221100-
...NORTHERN COLORADO FRONT RANGE...

CITY           SKY/WX    TMP DP  RH WIND       PRES   REMARKS
DENVER INTL AP FAIR      28  23  81 SW7       29.76R WCI  21
DMNS CITY PARK   N/A     31  18  59 MISG      29.78R
AURORA         MOCLDY    27  24  88 SW7       29.78R WCI  19
FRONT RANGE AP FAIR      32  28  86 SW9       29.77R WCI  24
ERIE MUNI ARPT FAIR      26  23  87 CALM      29.77S
BOULDER MUN AP FAIR      37  14  38 W21G28    29.76S
CENTENNIAL     FAIR      24  18  77 CALM      29.77R
BROOMFIELD     FAIR      32  16  51 W14       29.78R WCI  22
FORT COLLINS   FAIR      28  21  74 N3        29.79R
LONGMONT       FAIR      30  24  77 W6        29.79R WCI  24
$$

COZ041-046-047-076>085-087-088-221100-
...PIKES PEAK/PALMER DIVIDE AND SOUTHERN FOOTHILLS...

CITY           SKY/WX    TMP DP  RH WIND       PRES   REMARKS
COLO. SPRINGS  FAIR      30  19  63 NW8       29.76R WCI  22
A. F. ACADEMY  FAIR      22  16  78 N8        29.76R WCI  12
SCHRIEVER AFB  NOT AVBL
ELLICOTT       FAIR     N/A N/A N/A N6        29.74R
FALCON         FAIR      28  20  72 N10       29.76R WCI  19
FORT CARSON    NOT AVBL
LIMON          FAIR      26  23  88 NW9       29.76R WCI  17
MONUMENT HILL  FAIR      21  18  86 W6        29.78R WCI  14
TRINIDAD       FAIR      26  19  74 W8        29.77R WCI  18
$$

COZ042>045-048>051-090-091-221100-
...NORTHEAST COLORADO...

CITY           SKY/WX    TMP DP  RH WIND       PRES   REMARKS
GREELEY ARPT   FAIR      27  24  89 SW7       29.78R WCI  19
AKRON          FAIR      32  23  69 NW16      29.73R WCI  21
BURLINGTON     MOCLDY    30  26  85 W9        29.72R WCI  22
WRAY           CLOUDY    34  30  86 W9        29.72  WCI  26
STERLING       FAIR      32  27  80 NW8       29.74R WCI  25
HOLYOKE        FAIR      36  30  80 NW14      29.72R
FORT MORGAN    FAIR      32  24  71 N14       29.76S WCI  22
$$

COZ086-089-092>099-221100-
...SOUTHEAST COLORADO...

CITY           SKY/WX    TMP DP  RH WIND       PRES   REMARKS
PUEBLO         FAIR      27  23  85 W6        29.77R WCI  20
LA JUNTA       FAIR      30  26  85 W12       29.76R WCI  20
LAMAR          FAIR      26  23  88 SW7       29.73R WCI  18
SPRINGFIELD      N/A     29  27  92 NW13      29.71R WCI  19
$$




USA.gov is the U.S. government's official web portal to all federal, state and local government web resources and services.